Wind_Speed
11 11 11 10 9 8 8 7 7 6 6 6 6 6 6 6 6 6 6 5 5 5 4 5 5 5 5 5 5 5 4 5 5 5 5 4 3 4 4 3 3 3 2
11 11 11 10 9 8 7 7 6 6 6 6 6 6 6 6 6 5 5 5 4 4 4 4 5 5 5 5 4 4 4 5 5 5 5 4 4 4 4 4 4 3 3
10 10 10 9 8 7 6 6 5 5 5 5 5 6 6 6 5 5 5 4 4 4 4 3 4 5 5 5 4 4 4 4 5 5 5 5 5 4 4 4 5 4 4
11 10 9 9 8 7 6 6 5 5 5 5 5 5 5 5 5 4 4 4 4 3 3 3 4 4 4 4 4 4 4 5 5 5 5 5 5 5 4 5 5 5 4
11 10 9 9 8 7 6 5 5 5 5 5 4 4 4 4 4 4 3 3 3 3 3 3 3 3 4 4 4 4 4 5 5 5 6 5 5 5 5 5 5 5 5
11 10 9 8 8 7 7 6 5 4 4 4 4 4 4 4 3 3 2 2 2 2 2 3 2 3 3 4 4 4 4 4 5 5 6 6 5 5 5 5 6 6 6
10 10 8 7 7 7 7 7 6 4 3 3 3 3 3 3 3 2 2 1 1 1 2 2 2 3 3 3 3 3 3 3 4 4 5 6 6 5 5 6 6 7 7
9 9 8 8 7 7 7 7 7 5 4 3 3 3 3 3 3 2 2 1 1 1 1 1 2 2 3 3 3 3 3 4 4 5 5 5 5 5 6 7 7 7 8
9 9 9 8 8 8 7 7 7 6 4 3 3 3 3 3 3 2 2 1 2 1 1 2 3 3 3 3 3 4 4 4 4 6 5 5 6 6 6 7 7 8 8
9 9 9 8 8 8 7 7 6 5 4 4 3 3 3 3 3 2 1 0 1 2 1 2 3 3 3 3 3 4 4 5 5 5 4 5 5 6 6 7 7 8 8
8 9 8 8 7 7 6 6 6 5 4 3 2 2 3 3 3 2 2 1 1 1 1 1 2 3 3 3 4 4 5 5 5 5 5 5 5 6 7 7 7 7 7
7 7 7 7 7 7 7 6 6 4 3 2 1 1 2 2 2 2 1 1 1 2 2 2 3 3 4 4 5 5 5 5 6 6 5 5 5 6 7 7 7 7 7
7 7 7 6 7 8 7 6 6 5 4 3 2 2 2 3 2 2 3 2 2 2 2 3 3 4 4 5 6 6 6 6 6 6 6 6 7 7 7 7 8 8 8
7 7 7 7 7 7 7 7 6 6 5 4 3 3 3 3 3 3 2 2 2 3 3 3 3 4 5 6 7 7 6 7 7 7 7 7 7 7 8 8 9 9 9
7 8 8 7 7 7 7 7 7 7 6 5 4 3 3 3 3 4 3 4 3 3 3 4 4 5 7 7 7 8 8 7 7 7 7 7 8 9 9 9 9 10 10
8 8 8 8 7 7 7 7 7 7 7 6 6 5 5 5 4 4 4 5 5 5 5 5 6 7 7 7 7 7 8 8 9 9 8 8 9 9 10 10 10 11 11
9 9 9 8 8 8 8 8 7 8 8 8 7 7 7 7 6 6 6 6 7 8 7 7 7 7 8 8 8 9 8 8 9 9 10 9 9 10 10 11 12 12 12
10 10 10 9 9 9 9 8 8 8 9 9 9 9 9 9 9 8 8 8 8 9 8 8 8 8 9 9 9 9 9 9 9 10 10 10 10 11 11 11 12 12 11
12 11 11 11 11 10 11 10 10 9 9 10 10 10 10 11 10 10 10 10 9 9 10 9 9 9 9 9 9 9 9 9 10 10 10 11 11 11 11 11 11 11 12
14 13 13 13 13 12 12 12 12 12 11 11 11 12 12 12 12 11 10 10 10 10 10 11 10 10 10 10 10 11 11 11 11 11 12 12 12 11 11 12 12 12 12
17 16 15 15 15 15 14 13 13 13 13 13 13 13 13 13 13 13 11 11 11 11 10 10 10 10 10 11 11 11 12 12 12 12 13 13 13 13 13 13 13 13 14
19 18 18 17 17 17 16 16 15 16 16 15 15 15 15 14 14 14 13 13 12 12 12 12 11 11 11 11 12 12 12 13 13 14 14 14 14 14 14 14 14 14 14
20 20 19 19 19 18 18 18 17 17 17 17 17 18 17 16 15 15 14 13 13 13 13 13 13 13 13 13 13 14 14 13 14 14 14 15 14 14 14 14 14 15 15
22 21 21 21 20 19 19 19 19 19 19 19 19 19 20 19 18 17 16 15 14 14 14 14 15 15 14 14 14 15 15 15 15 15 15 15 15 15 15 15 15 16 16
24 23 22 22 22 22 21 21 20 20 20 20 21 21 21 21 21 19 18 16 15 15 15 15 16 16 16 16 15 15 15 16 16 16 16 15 16 16 16 16 17 17 17
25 25 25 24 23 23 22 22 21 21 22 22 22 23 22 22 21 20 19 17 17 17 17 18 17 17 17 17 17 16 16 16 17 16 17 17 17 18 18 18 18 18 18
Wind_Direction
40 42 40 39 42 48 55 56 57 61 67 74 79 87 93 97 103 113 118 120 125 135 143 153 159 159 155 152 151 159 164 173 173 175 176 181 174 169 172 174 174 179 193
38 38 36 37 41 44 50 53 57 62 66 71 77 89 96 98 101 107 113 117 122 129 136 146 159 161 162 166 168 171 176 181 186 184 190 194 194 188 190 196 194 200 201
32 33 31 33 38 41 47 50 56 63 69 74 83 90 99 102 103 107 112 114 119 124 127 143 160 165 169 176 181 184 193 191 194 200 213 219 210 204 200 206 201 201 206
27 27 26 28 34 38 42 46 50 63 74 76 83 87 96 106 108 108 111 113 117 120 139 155 166 171 175 184 182 185 190 192 202 212 224 230 224 214 206 209 202 202 212
25 22 23 29 34 36 36 36 48 65 79 81 80 80 90 102 110 112 113 116 126 133 146 158 162 176 180 185 180 186 194 203 210 218 226 229 218 211 214 220 218 214 221
25 23 24 31 32 33 36 38 44 57 74 81 81 76 84 96 108 114 115 105 117 133 154 165 172 175 194 194 192 204 208 213 216 217 223 223 218 217 220 223 228 229 230
20 20 25 28 28 30 35 38 36 43 65 78 84 84 85 97 109 115 108 121 120 135 139 158 175 173 177 184 193 206 213 213 214 222 225 229 223 216 220 229 235 235 234
17 17 19 20 25 29 34 37 41 45 57 79 77 78 77 92 112 116 102 115 137 138 157 173 174 179 182 187 197 211 219 229 226 234 238 238 226 223 231 242 246 243 240
11 13 15 18 22 24 27 32 38 45 59 71 70 78 80 95 105 113 140 136 154 171 164 181 185 189 197 200 207 215 224 233 233 234 235 241 234 232 238 246 251 252 247
6 8 9 10 15 18 19 21 30 41 56 62 58 64 69 85 88 83 74 65 219 199 176 174 186 199 208 218 229 234 236 238 234 235 243 248 243 238 242 249 257 255 252
0 2 2 3 5 8 10 11 18 30 42 46 50 54 64 63 61 61 45 348 275 232 204 211 213 236 243 246 255 258 245 239 237 245 253 257 255 252 251 250 256 254 254
350 351 352 352 354 355 356 1 2 2 10 19 20 1 3 6 11 11 347 314 288 259 255 253 244 252 252 251 249 255 252 252 254 257 258 260 259 259 259 256 257 258 263
340 345 343 337 342 343 344 346 349 348 340 333 326 313 321 324 329 329 323 303 286 284 274 269 262 266 260 256 253 260 257 260 263 260 265 264 265 268 266 265 263 262 264
326 329 330 330 327 329 338 342 336 336 333 333 325 314 305 309 313 308 307 297 289 280 284 283 278 277 271 266 263 260 261 264 263 266 270 271 270 270 269 268 266 262 263
315 317 318 320 319 318 323 331 332 327 328 320 309 300 294 296 301 309 300 288 280 271 274 277 277 277 269 270 269 264 266 268 266 269 270 271 271 271 271 270 267 265 264
312 312 313 315 315 314 317 322 321 321 318 305 299 294 292 293 296 298 291 276 272 267 263 265 269 265 264 266 266 267 266 267 266 268 268 270 271 273 273 271 270 270 268
307 307 305 301 303 305 311 312 310 305 306 304 294 290 288 287 288 294 293 280 275 272 267 260 263 265 266 265 265 263 264 266 269 269 269 269 271 272 272 272 271 270 268
300 300 298 294 299 302 304 301 299 299 298 298 293 285 281 279 280 283 284 283 281 276 271 263 265 266 266 268 269 266 267 270 273 272 271 270 270 271 273 274 273 269 267
295 293 291 292 293 295 298 298 294 293 292 296 295 283 277 278 280 280 276 278 279 279 275 272 273 270 269 272 272 269 269 273 276 275 271 272 273 273 274 276 275 269 267
291 289 290 292 290 290 291 290 290 290 286 289 295 290 283 280 277 278 277 275 273 274 275 275 276 275 273 273 273 272 272 273 276 274 273 273 274 273 275 276 275 272 271
288 288 288 287 289 289 289 287 285 286 285 284 288 287 282 278 275 274 275 274 271 271 272 271 271 275 275 275 273 276 275 274 277 275 274 275 276 275 276 277 275 273 271
285 286 286 286 285 286 286 284 283 286 284 284 282 283 279 276 276 274 272 272 269 268 269 268 270 273 276 277 275 276 278 276 278 278 276 274 274 275 276 276 274 273 273
282 282 284 286 285 283 282 281 280 281 281 282 282 280 276 272 273 275 272 271 270 267 267 269 272 274 276 276 275 273 275 275 277 278 276 273 272 275 277 277 275 275 276
278 279 281 284 283 282 281 280 279 278 278 279 280 277 277 274 272 274 271 269 268 269 268 269 272 274 275 276 274 274 275 273 274 276 276 275 275 276 277 279 278 279 278
274 275 277 279 281 283 282 281 279 279 280 279 277 274 274 271 272 271 268 267 267 268 270 270 271 274 275 275 274 275 275 273 274 276 275 276 278 278 279 280 279 278 278
273 273 275 276 277 279 280 281 280 279 280 279 276 272 270 271 272 268 262 263 266 266 268 269 270 272 275 276 274 275 277 277 278 278 277 277 278 278 278 279 279 278 278
Height
5897 5895 5893 5892 5891 5889 5888 5887 5886 5885 5885 5884 5884 5883 5883 5883 5883 5883 5883 5883 5884 5884 5884 5885 5885 5886 5886 5886 5887 5888 5888 5889 5889 5890 5891 5891 5891 5892 5892 5892 5892 5892 5892
5898 5895 5894 5893 5891 5890 5888 5887 5886 5886 5885 5884 5884 5883 5883 5883 5883 5883 5884 5884 5884 5884 5884 5885 5885 5886 5886 5887 5887 5888 5888 5889 5889 5890 5891 5891 5891 5892 5892 5892 5892 5892 5892
5898 5896 5895 5893 5892 5890 5889 5888 5887 5886 5885 5884 5884 5884 5883 5883 5884 5884 5884 5884 5884 5884 5885 5885 5885 5886 5886 5887 5887 5887 5888 5888 5889 5890 5890 5890 5891 5891 5891 5891 5891 5892 5892
5899 5897 5895 5894 5892 5890 5889 5888 5887 5886 5885 5884 5884 5884 5884 5884 5884 5884 5884 5884 5884 5885 5885 5885 5885 5885 5886 5886 5886 5887 5887 5888 5888 5889 5889 5889 5890 5890 5891 5891 5891 5891 5891
5899 5897 5895 5894 5892 5891 5889 5888 5887 5886 5885 5884 5884 5884 5884 5884 5884 5884 5884 5884 5884 5884 5884 5885 5885 5885 5885 5886 5886 5886 5887 5887 5887 5888 5888 5888 5889 5889 5890 5890 5890 5891 5891
5900 5898 5896 5894 5893 5891 5889 5888 5887 5886 5885 5884 5884 5884 5884 5884 5884 5884 5884 5884 5884 5884 5884 5884 5884 5884 5885 5885 5885 5886 5886 5886 5887 5887 5887 5887 5887 5888 5888 5889 5889 5890 5890
5900 5898 5896 5895 5893 5891 5890 5888 5886 5885 5884 5884 5884 5884 5884 5884 5884 5884 5884 5884 5884 5883 5884 5884 5884 5884 5884 5885 5885 5885 5886 5886 5886 5886 5886 5886 5886 5887 5888 5888 5888 5889 5889
5901 5899 5897 5895 5894 5892 5890 5887 5885 5884 5884 5884 5884 5884 5884 5883 5884 5884 5884 5883 5883 5883 5883 5883 5884 5884 5884 5884 5885 5885 5885 5885 5885 5885 5886 5885 5886 5886 5887 5887 5887 5888 5888
5900 5899 5897 5896 5894 5892 5890 5888 5886 5885 5884 5885 5885 5884 5884 5883 5883 5883 5883 5883 5883 5883 5883 5882 5883 5884 5884 5884 5884 5885 5885 5885 5885 5884 5884 5885 5885 5885 5886 5886 5886 5886 5886
5901 5899 5897 5896 5894 5893 5891 5889 5888 5886 5886 5886 5886 5885 5884 5883 5883 5883 5883 5883 5883 5883 5882 5882 5882 5883 5883 5884 5884 5884 5884 5884 5884 5883 5883 5884 5884 5884 5884 5884 5884 5884 5884
5901 5899 5898 5896 5895 5893 5892 5890 5889 5888 5887 5887 5886 5885 5884 5884 5883 5883 5883 5883 5882 5882 5882 5882 5882 5882 5883 5883 5883 5883 5883 5883 5882 5882 5882 5882 5883 5883 5883 5883 5883 5883 5883
5900 5899 5898 5896 5895 5893 5892 5890 5889 5888 5887 5887 5886 5885 5885 5884 5883 5883 5882 5882 5882 5882 5882 5882 5882 5882 5882 5882 5881 5882 5882 5882 5882 5882 5881 5882 5882 5881 5881 5881 5881 5881 5881
5900 5898 5897 5896 5895 5893 5892 5890 5889 5888 5887 5887 5886 5885 5885 5884 5883 5882 5882 5881 5882 5881 5881 5881 5881 5881 5881 5880 5880 5881 5881 5880 5881 5880 5880 5880 5880 5880 5880 5880 5880 5880 5879
5899 5898 5896 5895 5894 5893 5891 5890 5889 5888 5887 5886 5885 5885 5884 5884 5883 5882 5882 5881 5881 5881 5880 5880 5880 5880 5879 5879 5879 5879 5879 5879 5879 5879 5879 5879 5879 5879 5878 5878 5878 5878 5877
5898 5897 5895 5894 5893 5892 5891 5889 5888 5887 5887 5886 5885 5884 5884 5883 5882 5881 5881 5880 5880 5879 5879 5879 5879 5879 5878 5878 5878 5877 5877 5877 5877 5877 5877 5877 5877 5877 5876 5876 5876 5875 5875
5897 5896 5894 5893 5892 5891 5890 5888 5887 5886 5886 5885 5884 5883 5883 5882 5881 5881 5880 5879 5879 5878 5878 5878 5878 5877 5877 5876 5876 5876 5876 5876 5875 5875 5875 5875 5875 5875 5874 5874 5874 5873 5873
5896 5894 5893 5892 5891 5890 5888 5887 5886 5885 5884 5883 5883 5882 5882 5881 5880 5879 5879 5878 5877 5877 5876 5876 5876 5875 5875 5875 5875 5874 5874 5874 5873 5873 5873 5873 5873 5872 5872 5871 5871 5871 5870
5894 5893 5891 5890 5889 5888 5887 5886 5885 5884 5883 5882 5881 5880 5880 5879 5877 5877 5877 5877 5876 5875 5875 5875 5874 5874 5874 5873 5873 5873 5872 5872 5871 5871 5870 5870 5870 5870 5869 5869 5868 5868 5868
5892 5891 5889 5888 5887 5886 5885 5884 5883 5882 5881 5880 5879 5878 5877 5876 5876 5875 5875 5874 5874 5873 5873 5873 5872 5872 5872 5871 5871 5871 5870 5870 5869 5868 5868 5868 5867 5867 5867 5866 5866 5865 5865
5890 5888 5887 5886 5885 5884 5883 5882 5881 5880 5879 5877 5877 5875 5875 5874 5874 5874 5873 5872 5871 5871 5871 5870 5870 5870 5870 5869 5869 5868 5868 5867 5867 5866 5866 5865 5865 5864 5864 5863 5862 5862 5862
5887 5885 5884 5883 5882 5881 5880 5879 5878 5877 5876 5875 5874 5873 5872 5872 5871 5871 5870 5870 5869 5869 5868 5868 5868 5867 5867 5867 5866 5866 5865 5864 5864 5863 5863 5862 5862 5861 5861 5860 5859 5859 5858
5883 5882 5881 5879 5878 5877 5876 5875 5874 5873 5872 5872 5871 5870 5869 5869 5868 5868 5867 5867 5866 5866 5866 5865 5865 5865 5864 5864 5863 5863 5863 5862 5861 5860 5859 5859 5858 5858 5857 5856 5856 5855 5854
5879 5878 5877 5876 5875 5874 5872 5871 5870 5869 5868 5868 5867 5866 5866 5865 5865 5864 5864 5863 5863 5863 5862 5862 5862 5862 5861 5860 5860 5860 5859 5859 5858 5857 5856 5855 5855 5854 5853 5853 5852 5851 5851
5874 5873 5872 5872 5871 5869 5868 5867 5866 5865 5864 5863 5862 5862 5861 5861 5860 5860 5860 5859 5859 5859 5859 5859 5859 5858 5858 5857 5856 5856 5855 5855 5854 5854 5853 5852 5851 5850 5850 5849 5848 5848 5847
5869 5868 5868 5867 5866 5865 5864 5863 5862 5861 5860 5858 5857 5856 5856 5855 5855 5855 5855 5855 5855 5855 5855 5855 5855 5854 5854 5853 5853 5852 5851 5850 5850 5850 5849 5848 5848 5847 5846 5845 5844 5843 5842
5863 5863 5862 5862 5861 5860 5859 5858 5857 5856 5854 5853 5852 5851 5850 5850 5849 5849 5849 5850 5850 5850 5850 5850 5850 5850 5850 5849 5848 5848 5847 5846 5846 5845 5844 5844 5843 5843 5842 5841 5840 5839 5838